Regional Weather Roundup
Issued by NWS Portland, ME

Home | Current Version | Previous Version | Text Only | Print | Product List | Glossary On
Versions: 1 2 3 4 5 6 7 8 9 10 11 12 13 14 15 16 17 18 19 20 21 22 23 24 25 26 27 28 29 30 31 32 33 34 35 36 37 38 39 40 41 42 43 44 45 46 47 48 49 50
888
ASUS41 KGYX 210610
RWRGYX
WEATHER ROUNDUP FOR MAINE AND NEW HAMPSHIRE
NATIONAL WEATHER SERVICE GRAY ME
200 AM EDT WED APR 21 2021

MEZ002-005-006-010-012-015-018-020-021-024-026-027-029-210700-
MAINE

CITY           SKY/WX    TMP DP  RH WIND       PRES   REMARKS
PORTLAND       CLOUDY    49  37  63 CALM      29.90F
6HR MIN TEMP:  48; 6HR MAX TEMP:  57; 6HR PCP: TRACE;

SANFORD        CLOUDY    43  39  86 CALM      29.91R
BAR HARBOR     CLOUDY    42  40  92 CALM      29.90F
WISCASSET      LGT RAIN  45  43  93 CALM      29.91R
6HR MIN TEMP:  45; 6HR MAX TEMP:  59; 6HR PCP:  0.02;

ROCKLAND       CLOUDY    45  44  97 W3        29.91R
FRYEBURG       RAIN      43  40  89 CALM      29.88S
6HR MIN TEMP:  42; 6HR MAX TEMP:  53; 6HR PCP:  0.04;

LEWISTONAUBURN LGT RAIN  42  41  96 E5        29.88F
AUGUSTA        LGT RAIN  46  36  68 CALM      29.90S
6HR MIN TEMP:  45; 6HR MAX TEMP:  54; 6HR PCP:  0.01;

WATERVILLE     LGT RAIN  47  31  53 NW6       29.88R
BANGOR         CLOUDY    45  37  73 CALM      29.90S
6HR MIN TEMP:  41; 6HR MAX TEMP:  56;

GREENVILLE       N/A     38  25  59 VRB3      29.84R
6HR MIN TEMP:  38; 6HR MAX TEMP:  43;

MILLINOCKET    MOCLDY    39  30  70 CALM      29.87F
6HR MIN TEMP:  39; 6HR MAX TEMP:  48;

HOULTON        MOCLDY    41  26  55 CALM      29.86S
6HR MIN TEMP:  32; 6HR MAX TEMP:  47;

PRESQUE ISLE   CLOUDY    33  33 100 S3        29.87S
6HR MIN TEMP:  30; 6HR MAX TEMP:  45;

FRENCHVILLE    MOCLDY    37  27  67 SW6       29.80S
6HR MIN TEMP:  37; 6HR MAX TEMP:  42;

CARIBOU        CLOUDY    38  29  70 SW7       29.84S
6HR MIN TEMP:  38; 6HR MAX TEMP:  45;

$$

NHZ002-005-008-009-011-012-014-210700-
NEW HAMPSHIRE

CITY           SKY/WX    TMP DP  RH WIND       PRES   REMARKS
PORTSMOUTH     MOCLDY    46  34  61 CALM      29.91F
ROCHESTER      PTCLDY    47  34  60 CALM      29.90S
6HR MIN TEMP:  46; 6HR MAX TEMP:  58; 6HR PCP: TRACE;

NASHUA         PTCLDY    47  39  74 W5        29.90F
MANCHESTER     MOCLDY    50  38  63 N5        29.88F
6HR MIN TEMP:  49; 6HR MAX TEMP:  62;

CONCORD        MOCLDY    45  32  60 CALM      29.90F
6HR MIN TEMP:  44; 6HR MAX TEMP:  55;

LACONIA        LGT RAIN  43  41  93 W8        29.91S
PLYMOUTH       LGT RAIN  40  37  90 CALM      29.92S
BERLIN         PTCLDY    34  28  79 SE6       29.88F
6HR MIN TEMP:  32; 6HR MAX TEMP:  49;

WHITEFIELD     CLOUDY    32  29  88 CALM      29.90F
6HR MIN TEMP:  30; 6HR MAX TEMP:  48;

JAFFREY        PTCLDY    41  38  89 CALM      29.89F
6HR MIN TEMP:  41; 6HR MAX TEMP:  55;

KEENE          MOCLDY    39  37  92 SW5       29.90F
LEBANON        CLOUDY    41  37  86 NE5       29.90F
6HR MIN TEMP:  41; 6HR MAX TEMP:  52; 6HR PCP:  0.07;

MT WASHINGTON  MOCLDY    27  25  93 W61G71      N/A  WCI   5
6HR MIN TEMP:  20; 6HR MAX TEMP:  26; 6HR PCP: TRACE;

$$

VTZ005-007-008-210700-
VERMONT

CITY           SKY/WX    TMP DP  RH WIND       PRES   REMARKS
ST JOHNSBURY     N/A     37  28  70 MISG      29.90F
MONTPELIER     CLOUDY    39  28  64 NW6       29.94F
BURLINGTON     CLOUDY    43  28  55 NW5       29.92F
$$

MAZ007-012-024-CTZ003-RIZ002-NYZ038-NYZ072-210700-
SOUTHERN NEW ENGLAND AND NY

CITY           SKY/WX    TMP DP  RH WIND       PRES   REMARKS
BOSTON         PTCLDY    53  38  56 S7        29.90F
WORCESTER      CLEAR     47  36  65 CALM      29.88F
NANTUCKET      CLEAR     50  47  89 SW15      29.95F
PROVIDENCE     CLEAR     52  41  66 S6        29.91F
HARTFORD       PTCLDY    47  36  65 N5        29.88F
ALBANY         CLOUDY    39  36  89 W3        29.92F
NEW YORK CITY  PTCLDY    58  39  49 S8        29.84F
$$

ANZ081-ANZ082-ANZ150-NHZ014-MEZ023>029-210700-
COASTAL MARINE OBSERVATIONS

STATION/POSITION TIME  TEMP    WIND        PRES    WAVE
                       AIR SEA DIR/SP/G            HT/PER
                 (UTC) (F)     (DEG/KT/KT) (MB)    (FT/S)
MOUNT DESERT ROC 0600          200/  1/  2 1012.6F
ISLE OF SHOALS   0600   54     310/  7/  8 1011.9F
JEFFREYS LEDGE   0556      45                N/A     2/ 5
CASHES LEDGE BUO 0550   46 44              1013.4R   3/ 6
$$

.............KEY..............
   WCI - WIND CHILL
   TC  - TEMPERATURE IN CELSIUS
   VSB - VISIBILITY IN MILES
   HX  - HEAT INDEX
   FAIR- INDICATES FEW OR NO CLOUDS BELOW 12,000 FT, WITH NO
         SIGNIFICANT WEATHER AND/OR OBSTRUCTIONS TO VISIBILITY.






USA.gov is the U.S. government's official web portal to all federal, state and local government web resources and services.